| time (UTC) | temp F | wind direction | speed MPH | gust MPH | rain 1hr in | rain 24hr in | rain mn in | humidity % | barometer mb |
| 20260506223350 | 63 | 5 | 1.0 | 4.0 | 0.00 | 0.00 | 0.00 | 79 | 1012.6 |
| 20260506222336 | 64 | 26 | 2.0 | 5.0 | 0.00 | 0.00 | 0.00 | 79 | 1012.5 |
| 20260506221335 | 64 | 355 | 0.0 | 3.0 | 0.00 | 0.00 | 0.00 | 79 | 1012.6 |
| 20260506220337 | 64 | 59 | 1.0 | 4.0 | 0.00 | 0.00 | 0.00 | 79 | 1012.7 |
| 20260506215349 | 64 | 25 | 1.0 | 3.0 | 0.00 | 0.00 | 0.00 | 79 | 1012.8 |
| 20260506214347 | 64 | 21 | 2.0 | 5.0 | 0.00 | 0.00 | 0.00 | 80 | 1012.8 |
| 20260506213406 | 64 | 25 | 2.0 | 4.0 | 0.00 | 0.00 | 0.00 | 80 | 1013.1 |
| 20260506212404 | 64 | 30 | 0.0 | 1.0 | 0.00 | 0.00 | 0.00 | 80 | 1013.2 |
| 20260506211332 | 64 | 17 | 1.0 | 3.0 | 0.00 | 0.00 | 0.00 | 80 | 1013.1 |
| 20260506210331 | 64 | 26 | 0.0 | 4.0 | 0.00 | 0.00 | 0.00 | 80 | 1013.0 |
| 20260506205356 | 64 | 84 | 1.0 | 3.0 | 0.00 | 0.00 | 0.00 | 80 | 1012.9 |
| 20260506204354 | 64 | 85 | 2.0 | 4.0 | 0.00 | 0.00 | 0.00 | 80 | 1012.8 |
| 20260506203347 | 64 | 78 | 2.0 | 4.0 | 0.00 | 0.00 | 0.00 | 79 | 1012.8 |
| 20260506202331 | 64 | 86 | 2.0 | 7.0 | 0.00 | 0.00 | 0.00 | 79 | 1012.7 |
| 20260506201345 | 64 | 80 | 1.0 | 4.0 | 0.00 | 0.00 | 0.00 | 79 | 1012.6 |
| 20260506200344 | 64 | 87 | 2.0 | 5.0 | 0.00 | 0.00 | 0.00 | 79 | 1012.5 |
| 20260506195357 | 64 | 69 | 2.0 | 6.0 | 0.00 | 0.00 | 0.00 | 78 | 1012.4 |
| 20260506194345 | 64 | 71 | 4.0 | 7.0 | 0.00 | 0.00 | 0.00 | 78 | 1012.1 |
| 20260506193359 | 64 | 51 | 3.0 | 8.0 | 0.00 | 0.00 | 0.00 | 78 | 1012.1 |
| 20260506192334 | 64 | 67 | 4.0 | 6.0 | 0.00 | 0.00 | 0.00 | 78 | 1012.0 |
| 20260506191336 | 64 | 102 | 4.0 | 9.0 | 0.00 | 0.00 | 0.00 | 78 | 1012.0 |
| 20260506190332 | 64 | 59 | 5.0 | 10.0 | 0.00 | 0.00 | 0.00 | 77 | 1012.0 |
| 20260506185338 | 65 | 87 | 4.0 | 10.0 | 0.00 | 0.00 | 0.00 | 76 | 1011.8 |
| 20260506184358 | 65 | 83 | 4.0 | 9.0 | 0.00 | 0.00 | 0.00 | 76 | 1011.7 |
| 20260506183418 | 65 | 78 | 4.0 | 9.0 | 0.00 | 0.00 | 0.00 | 76 | 1011.7 |
| 20260506182404 | 65 | 94 | 8.0 | 12.0 | 0.00 | 0.00 | 0.00 | 75 | 1011.6 |
| 20260506181343 | 65 | 88 | 7.0 | 12.0 | 0.00 | 0.00 | 0.00 | 75 | 1011.6 |
| 20260506180340 | 65 | 76 | 8.0 | 15.0 | 0.00 | 0.00 | 0.00 | 74 | 1011.5 |
| 20260506175354 | 65 | 78 | 8.0 | 15.0 | 0.00 | 0.00 | 0.00 | 73 | 1011.6 |
| 20260506174346 | 66 | 96 | 7.0 | 19.0 | 0.00 | 0.00 | 0.00 | 74 | 1011.4 |
| 20260506173344 | 66 | 98 | 7.0 | 19.0 | 0.00 | 0.00 | 0.00 | 73 | 1011.6 |
| 20260506172334 | 66 | 132 | 6.0 | 19.0 | 0.00 | 0.00 | 0.00 | 73 | 1011.6 |
| 20260506171332 | 66 | 78 | 7.0 | 19.0 | 0.00 | 0.00 | 0.00 | 74 | 1011.5 |
| 20260506170341 | 67 | 63 | 5.0 | 19.0 | 0.00 | 0.00 | 0.00 | 73 | 1011.2 |
| 20260506165334 | 67 | 79 | 6.0 | 19.0 | 0.00 | 0.00 | 0.00 | 73 | 1011.4 |
| 20260506164348 | 67 | 96 | 6.0 | 19.0 | 0.00 | 0.00 | 0.00 | 72 | 1011.3 |
| 20260506163343 | 67 | 74 | 8.0 | 19.0 | 0.00 | 0.00 | 0.00 | 71 | 1011.3 |
| 20260506162334 | 67 | 87 | 9.0 | 19.0 | 0.00 | 0.00 | 0.00 | 70 | 1011.3 |
| 20260506161333 | 68 | 58 | 9.0 | 19.0 | 0.00 | 0.00 | 0.00 | 69 | 1011.3 |
| 20260506160352 | 68 | 43 | 10.0 | 19.0 | 0.00 | 0.00 | 0.00 | 68 | 1011.3 |
| 20260506155336 | 69 | 86 | 11.0 | 19.0 | 0.00 | 0.00 | 0.00 | 67 | 1011.0 |
| 20260506154336 | 69 | 136 | 7.0 | 19.0 | 0.00 | 0.00 | 0.00 | 66 | 1011.0 |
| 20260506153346 | 69 | 118 | 11.0 | 19.0 | 0.00 | 0.00 | 0.00 | 66 | 1011.1 |
| 20260506152334 | 69 | 94 | 9.0 | 19.0 | 0.00 | 0.00 | 0.00 | 65 | 1011.0 |
| 20260506151348 | 69 | 44 | 9.0 | 19.0 | 0.00 | 0.00 | 0.00 | 66 | 1011.2 |
| 20260506150403 | 69 | 45 | 9.0 | 19.0 | 0.00 | 0.00 | 0.00 | 66 | 1011.1 |
| 20260506145354 | 70 | 79 | 8.0 | 19.0 | 0.00 | 0.00 | 0.00 | 65 | 1011.3 |
| 20260506144345 | 70 | 51 | 9.0 | 19.0 | 0.00 | 0.00 | 0.00 | 65 | 1011.3 |
| 20260506143337 | 70 | 95 | 10.0 | 19.0 | 0.00 | 0.00 | 0.00 | 65 | 1011.6 |
| 20260506142356 | 70 | 98 | 9.0 | 19.0 | 0.00 | 0.00 | 0.00 | 65 | 1011.7 |
| 20260506141334 | 69 | 69 | 7.0 | 19.0 | 0.00 | 0.00 | 0.00 | 68 | 1011.5 |
| 20260506140334 | 70 | 57 | 7.0 | 19.0 | 0.00 | 0.00 | 0.00 | 66 | 1011.8 |
| 20260506135343 | 69 | 122 | 7.0 | 19.0 | 0.00 | 0.00 | 0.00 | 66 | 1011.7 |
| 20260506134334 | 69 | 78 | 8.0 | 19.0 | 0.00 | 0.00 | 0.00 | 66 | 1011.8 |
| 20260506133333 | 70 | 45 | 9.0 | 19.0 | 0.00 | 0.00 | 0.00 | 66 | 1011.8 |
| 20260506132345 | 69 | 92 | 8.0 | 19.0 | 0.00 | 0.00 | 0.00 | 67 | 1011.7 |
| 20260506131345 | 70 | 55 | 10.0 | 19.0 | 0.00 | 0.00 | 0.00 | 66 | 1011.9 |
| 20260506130334 | 70 | 65 | 10.0 | 19.0 | 0.00 | 0.00 | 0.00 | 65 | 1011.8 |
| 20260506125415 | 71 | 59 | 8.0 | 18.0 | 0.00 | 0.00 | 0.00 | 64 | 1011.9 |
| 20260506124346 | 71 | 79 | 8.0 | 18.0 | 0.00 | 0.00 | 0.00 | 64 | 1011.9 |
| 20260506123356 | 70 | 80 | 10.0 | 18.0 | 0.00 | 0.00 | 0.00 | 64 | 1011.8 |
| 20260506122354 | 71 | 137 | 10.0 | 18.0 | 0.00 | 0.00 | 0.00 | 63 | 1011.9 |
| 20260506121414 | 71 | 111 | 9.0 | 18.0 | 0.00 | 0.00 | 0.00 | 63 | 1012.1 |
| 20260506120342 | 70 | 38 | 7.0 | 18.0 | 0.00 | 0.00 | 0.00 | 65 | 1012.0 |
| 20260506115336 | 71 | 87 | 8.0 | 18.0 | 0.00 | 0.00 | 0.00 | 63 | 1012.2 |
| 20260506114355 | 71 | 78 | 8.0 | 18.0 | 0.00 | 0.00 | 0.00 | 62 | 1012.1 |
| 20260506113345 | 70 | 129 | 10.0 | 18.0 | 0.00 | 0.00 | 0.00 | 64 | 1012.1 |
| 20260506112345 | 70 | 96 | 8.0 | 18.0 | 0.00 | 0.00 | 0.00 | 63 | 1012.4 |
| 20260506111335 | 72 | 65 | 8.0 | 18.0 | 0.00 | 0.00 | 0.00 | 61 | 1012.4 |
| 20260506110331 | 71 | 138 | 7.0 | 18.0 | 0.00 | 0.00 | 0.00 | 64 | 1012.3 |
| 20260506105342 | 71 | 350 | 7.0 | 18.0 | 0.00 | 0.00 | 0.00 | 63 | 1012.5 |
| 20260506104333 | 71 | 84 | 10.0 | 18.0 | 0.00 | 0.00 | 0.00 | 59 | 1012.5 |
| 20260506103334 | 71 | 106 | 9.0 | 16.0 | 0.00 | 0.00 | 0.00 | 60 | 1012.6 |
| 20260506102355 | 71 | 30 | 9.0 | 16.0 | 0.00 | 0.00 | 0.00 | 61 | 1012.6 |
| 20260506101405 | 72 | 111 | 6.0 | 16.0 | 0.00 | 0.00 | 0.00 | 59 | 1012.5 |
| 20260506100343 | 71 | 63 | 6.0 | 15.0 | 0.00 | 0.00 | 0.00 | 59 | 1012.5 |
| 20260506095354 | 71 | 113 | 7.0 | 15.0 | 0.00 | 0.00 | 0.00 | 59 | 1012.4 |
| 20260506094348 | 73 | 344 | 9.0 | 15.0 | 0.00 | 0.00 | 0.00 | 57 | 1012.4 |
| 20260506093334 | 72 | 128 | 8.0 | 14.0 | 0.00 | 0.00 | 0.00 | 59 | 1012.4 |
| 20260506092333 | 71 | 84 | 3.0 | 11.0 | 0.00 | 0.00 | 0.00 | 60 | 1012.4 |
| 20260506091342 | 70 | 19 | 3.0 | 11.0 | 0.00 | 0.00 | 0.00 | 61 | 1012.0 |
| 20260506090341 | 71 | 10 | 1.0 | 11.0 | 0.00 | 0.00 | 0.00 | 59 | 1011.9 |
| 20260506085334 | 73 | 36 | 3.0 | 11.0 | 0.00 | 0.00 | 0.00 | 56 | 1011.9 |
| 20260506084412 | 72 | 108 | 1.0 | 11.0 | 0.00 | 0.00 | 0.00 | 59 | 1011.9 |
| 20260506083339 | 71 | 134 | 2.0 | 11.0 | 0.00 | 0.00 | 0.00 | 62 | 1011.9 |
| 20260506082339 | 71 | 253 | 1.0 | 8.0 | 0.00 | 0.00 | 0.00 | 64 | 1011.9 |
| 20260506081330 | 70 | 83 | 1.0 | 8.0 | 0.00 | 0.00 | 0.00 | 66 | 1012.0 |
| 20260506080406 | 71 | 78 | 1.0 | 8.0 | 0.00 | 0.00 | 0.00 | 64 | 1012.0 |
| 20260506073334 | 69 | 281 | 1.0 | 8.0 | 0.00 | 0.00 | 0.00 | 64 | 1012.0 |
| 20260506072353 | 68 | 338 | 1.0 | 8.0 | 0.00 | 0.00 | 0.00 | 65 | 1012.1 |
| 20260506071343 | 68 | 281 | 4.0 | 8.0 | 0.00 | 0.00 | 0.00 | 64 | 1012.0 |
| 20260506070404 | 68 | 273 | 0.0 | 8.0 | 0.00 | 0.00 | 0.00 | 65 | 1011.9 |
| 20260506062335 | 65 | 317 | 2.0 | 8.0 | 0.00 | 0.00 | 0.00 | 69 | 1012.0 |
| 20260506061334 | 64 | 355 | 3.0 | 7.0 | 0.00 | 0.00 | 0.00 | 69 | 1012.0 |
| 20260506060413 | 63 | 342 | 2.0 | 7.0 | 0.00 | 0.00 | 0.00 | 70 | 1012.1 |
| 20260506051335 | 62 | 348 | 2.0 | 6.0 | 0.00 | 0.00 | 0.00 | 71 | 1011.5 |
| 20260506050346 | 61 | 333 | 2.0 | 6.0 | 0.00 | 0.00 | 0.00 | 71 | 1011.3 |
| 20260506044334 | 62 | 309 | 3.0 | 5.0 | 0.00 | 0.00 | 0.00 | 70 | 1011.2 |
| 20260506043353 | 62 | 322 | 1.0 | 8.0 | 0.00 | 0.00 | 0.00 | 70 | 1011.3 |
| 20260506042341 | 62 | 279 | 2.0 | 6.0 | 0.00 | 0.00 | 0.00 | 70 | 1011.2 |
| 20260506041341 | 62 | 337 | 2.0 | 8.0 | 0.00 | 0.00 | 0.00 | 70 | 1011.2 |
| 20260506040328 | 62 | 298 | 1.0 | 5.0 | 0.00 | 0.00 | 0.00 | 70 | 1011.2 |
| 20260506035341 | 63 | 348 | 3.0 | 6.0 | 0.00 | 0.00 | 0.00 | 70 | 1011.1 |
| 20260506034341 | 63 | 355 | 3.0 | 10.0 | 0.00 | 0.00 | 0.00 | 70 | 1011.1 |
| 20260506033353 | 62 | 263 | 2.0 | 8.0 | 0.00 | 0.00 | 0.00 | 70 | 1011.1 |
| 20260506032332 | 62 | 321 | 1.0 | 5.0 | 0.00 | 0.00 | 0.00 | 70 | 1011.1 |
| 20260506031349 | 62 | 355 | 1.0 | 3.0 | 0.00 | 0.00 | 0.00 | 69 | 1011.1 |
| 20260506030339 | 62 | 103 | 0.0 | 0.0 | 0.00 | 0.00 | 0.00 | 67 | 1011.0 |
| 20260506025332 | 63 | 103 | 0.0 | 2.0 | 0.00 | 0.00 | 0.00 | 67 | 1011.0 |
| 20260506024349 | 63 | 94 | 2.0 | 5.0 | 0.00 | 0.00 | 0.00 | 67 | 1010.9 |
| 20260506023334 | 63 | 232 | 0.0 | 5.0 | 0.00 | 0.00 | 0.00 | 67 | 1010.8 |
| 20260506022333 | 63 | 266 | 0.0 | 1.0 | 0.00 | 0.00 | 0.00 | 65 | 1010.8 |
| 20260506021352 | 63 | 242 | 2.0 | 3.0 | 0.00 | 0.00 | 0.00 | 63 | 1010.9 |
| 20260506020343 | 63 | 242 | 0.0 | 1.0 | 0.00 | 0.00 | 0.00 | 61 | 1010.9 |
| 20260506015335 | 63 | 259 | 0.0 | 1.0 | 0.00 | 0.00 | 0.00 | 61 | 1010.9 |
| 20260506014355 | 63 | 267 | 0.0 | 1.0 | 0.00 | 0.00 | 0.00 | 61 | 1010.9 |
| 20260506013352 | 64 | 269 | 0.0 | 3.0 | 0.00 | 0.00 | 0.00 | 61 | 1011.0 |
| 20260506012400 | 64 | 267 | 1.0 | 3.0 | 0.00 | 0.00 | 0.00 | 63 | 1011.1 |
| 20260506011354 | 64 | 188 | 0.0 | 3.0 | 0.00 | 0.00 | 0.00 | 63 | 1011.0 |
| 20260506010333 | 64 | 228 | 0.0 | 3.0 | 0.00 | 0.00 | 0.00 | 63 | 1011.0 |
| 20260506005406 | 64 | 223 | 0.0 | 4.0 | 0.00 | 0.00 | 0.00 | 65 | 1011.0 |
| 20260506004404 | 65 | 259 | 0.0 | 3.0 | 0.00 | 0.00 | 0.00 | 65 | 1010.9 |
| 20260506003335 | 65 | 312 | 1.0 | 4.0 | 0.00 | 0.00 | 0.00 | 66 | 1011.1 |
| 20260506002335 | 65 | 281 | 0.0 | 2.0 | 0.00 | 0.00 | 0.00 | 68 | 1011.0 |
| 20260506001355 | 64 | 341 | 0.0 | 4.0 | 0.00 | 0.00 | 0.00 | 69 | 1011.1 |
| 20260506000342 | 64 | 269 | 0.0 | 2.0 | 0.00 | 0.00 | 0.00 | 71 | 1011.2 |
| 20260505235332 | 64 | 304 | 0.0 | 2.0 | 0.00 | 0.00 | 0.00 | 71 | 1011.3 |
| 20260505234352 | 64 | 350 | 1.0 | 4.0 | 0.00 | 0.00 | 0.00 | 72 | 1011.4 |
| 20260505233344 | 64 | 323 | 1.0 | 2.0 | 0.00 | 0.00 | 0.00 | 73 | 1011.4 |
| 20260505232344 | 65 | 25 | 3.0 | 5.0 | 0.00 | 0.00 | 0.00 | 72 | 1011.4 |
| 20260505231334 | 65 | 348 | 1.0 | 7.0 | 0.00 | 0.00 | 0.00 | 71 | 1011.5 |
| 20260505230353 | 65 | 313 | 1.0 | 5.0 | 0.00 | 0.00 | 0.00 | 73 | 1011.5 |
| 20260505225353 | 64 | 341 | 2.0 | 5.0 | 0.00 | 0.00 | 0.00 | 75 | 1011.6 |
| 20260505224356 | 64 | 355 | 1.0 | 3.0 | 0.00 | 0.00 | 0.00 | 77 | 1011.6 |